Weather History for KENW - November, 2011

Change the Weather History Date:

Monday, November 28, 2011

  Actual Average Record
Temperature  
Mean Temperature 33 °F -  
Max Temperature 36 °F 39 °F 64 °F (1998)
Min Temperature 30 °F 25 °F -1 °F (1955)
Degree Days  
Heating Degree Days 32    
Moisture  
Dew Point 26 °F    
Average Humidity 75    
Maximum Humidity 82    
Minimum Humidity 72    
Precipitation  
Precipitation 0.00 in - - ()
Sea Level Pressure  
Sea Level Pressure 30.11 in    
Wind  
Wind Speed 7 mph (NNW)    
Max Wind Speed 12 mph    
Max Gust Speed -    
Visibility 8 miles    
Events      
Averages and records for this station are not official NWS values.
T = Trace of Precipitation, MM = Missing Value Source: NWS Daily Summary

Daily Weather History Graph

Daily Weather History Graph

Search for Another Location

Airport or City:

Trip Planner

Search our weather history database for the weather conditions in past years. The results will help you decide how hot, cold, wet, or windy it might be!

Date:

Astronomy

Nov. 28, 2011 Rise Set
Actual Time 6:58 AM CST 4:20 PM CST
Civil Twilight 6:27 AM CST 4:51 PM CST
Nautical Twilight 5:52 AM CST 5:26 PM CST
Astronomical Twilight 5:18 AM CST 6:00 PM CST
Moon 10:07 AM CST (11/28) 8:08 PM CST (11/28)
Length of Visible Light 10h 24m
Length of Day
9h 22m
Waxing Crescent, 16% of the Moon is Illuminated
Nov 28
Waxing Crescent
Dec 2
First Quarter
Dec 10
Full
Dec 17
Last Quarter
Dec 24
New

Hourly Weather History & Observations

Time (CST) Temp. Windchill Dew Point Humidity Pressure Visibility Wind Dir Wind Speed Gust Speed Precip Events Conditions
12:53 AM 33.1 °F 26.9 °F 25.0 °F 72% 30.16 in 10.0 mi North 6.9 mph - N/A   Overcast
1:53 AM 33.1 °F 27.7 °F 25.0 °F 72% 30.18 in 10.0 mi NNW 5.8 mph - N/A   Overcast
2:53 AM 33.1 °F 27.7 °F 25.0 °F 72% 30.16 in 10.0 mi NNW 5.8 mph - N/A   Overcast
3:53 AM 33.1 °F 26.9 °F 25.0 °F 72% 30.17 in 10.0 mi NW 6.9 mph - N/A   Overcast
4:53 AM 33.1 °F 26.9 °F 25.0 °F 72% 30.17 in 10.0 mi NNW 6.9 mph - N/A   Overcast
5:53 AM 33.1 °F 25.5 °F 25.0 °F 72% 30.17 in 10.0 mi NNW 9.2 mph - N/A   Overcast
6:53 AM 33.1 °F 27.7 °F 25.0 °F 72% 30.18 in 10.0 mi NNW 5.8 mph - N/A   Overcast
7:53 AM 33.1 °F 27.7 °F 26.1 °F 75% 30.19 in 9.0 mi NNW 5.8 mph - N/A   Overcast
8:53 AM 34.0 °F 28.8 °F 27.0 °F 75% 30.17 in 9.0 mi North 5.8 mph - N/A   Overcast
9:53 AM 34.0 °F 27.2 °F 27.0 °F 75% 30.17 in 8.0 mi North 8.1 mph - N/A   Overcast
10:53 AM 36.0 °F 29.0 °F 28.0 °F 73% 30.15 in 7.0 mi NNW 9.2 mph - N/A   Overcast
11:53 AM 36.0 °F 30.3 °F 28.0 °F 73% 30.13 in 8.0 mi North 6.9 mph - N/A   Overcast
12:53 PM 36.0 °F 28.5 °F 28.9 °F 76% 30.11 in 5.0 mi NNW 10.4 mph - 0.00 in   Haze
1:53 PM 36.0 °F 31.1 °F 28.0 °F 73% 30.11 in 8.0 mi North 5.8 mph - N/A   Overcast
2:53 PM 36.0 °F 31.1 °F 28.0 °F 73% 30.10 in 8.0 mi North 5.8 mph - N/A   Overcast
4:53 PM 35.1 °F 28.6 °F 28.0 °F 76% 30.07 in 10.0 mi North 8.1 mph - N/A   Overcast
5:53 PM 35.1 °F 30.1 °F 27.0 °F 72% 30.08 in 9.0 mi North 5.8 mph - N/A   Overcast
6:53 PM 32.0 °F 26.4 °F 27.0 °F 82% 30.06 in 7.0 mi North 5.8 mph - N/A   Mostly Cloudy
7:53 PM 32.0 °F 28.7 °F 26.1 °F 79% 30.08 in 7.0 mi North 3.5 mph - N/A   Overcast
8:53 PM 32.0 °F 26.4 °F 25.0 °F 75% 30.07 in 8.0 mi North 5.8 mph - N/A   Overcast
9:10 PM 32.0 °F 25.6 °F 24.8 °F 75% 30.04 in 8.0 mi NNW 6.9 mph - N/A   Overcast
9:53 PM 30.9 °F 23.5 °F 26.1 °F 82% 30.05 in 6.0 mi NNW 8.1 mph - N/A   Haze
10:53 PM 32.0 °F 23.0 °F 26.1 °F 79% 30.04 in 5.0 mi North 11.5 mph - N/A   Haze
11:42 PM 30.2 °F 21.9 °F 24.8 °F 80% 29.99 in 5.0 mi North 9.2 mph - N/A   Haze
11:53 PM 30.0 °F 21.1 °F 25.0 °F 82% 30.01 in 5.0 mi North 10.4 mph - N/A   Haze